Terug naar catalogus

THORAD AGENA D DEB

LostSSO
NORAD 42539·DEBRIS·🇺🇸 United States

Gelanceerd Apr 8, 1970 vanaf Vandenberg Space Force Base

Loading…

Volgende Passages (komende 24 uur)

TLE

VerouderdSource: Space-Track

Epoch: Sep 30, 2022, 21:50 UTC

1 42539U 70025SV  22273.91029547  .00002090  00000-0  12486-2 0  9994
2 42539  99.0639 330.7522 0075279 150.9971 209.5411 14.06881163495597

Volg THORAD AGENA D DEB in realtime met AllMySat

Download on the App Store